Location: Newark
(32.9533°N, 113.4900°W)
Time: 15:02:19
(UTC+00:00)

Envisat - Pass Details

Date: 26 October 2019
Orbit: 764 x 766 km, 98.1° (Epoch: 13 November)

Event Time Altitude Azimuth Distance (km) Brightness Sun altitude
Rises 02:00:40 0° 176° (S) 3,216 6.2 -15.5°
Reaches altitude 10° 02:03:00 10° 180° (S) 2,294 5.5 -16.0°
Maximum altitude 02:07:58 58° 259° (W) 887 3.6 -17.0°
Drops below altitude 10° 02:12:59 10° 339° (NNW) 2,306 5.7 -18.1°
Sets 02:15:20 0° 343° (NNW) 3,235 6.4 -18.6°
